This demonstration page uses our WeatherBlox Daily Observations layout. Learn more.

Left ArrowRight Arrow

44.8408, -93.29828

Hourly Observations for March 14, 2020

Temp ( °F °C ) Dew Point ( °F °C ) Humidity (%) Winds ( mph kmh ) Pressure ( in mb ) Visibility ( mi km ) Precip ( " mm )
12:53 am 00:53 Clear 26 -3.3 13 -10.6 57 57 N 12 19 30.53 1034 10 16 0.00 0.00
1:53 am 01:53 Cloudy 25 -3.9 12 -11.1 58 58 N 10 17 30.54 1034 10 16 0.00 0.00
2:53 am 02:53 Cloudy 25 -3.9 12 -11.1 58 58 N 9 15 30.55 1035 10 16 0.00 0.00
3:53 am 03:53 Cloudy 24 -4.4 13 -10.6 62 62 NNE 10 17 30.53 1034 10 16 0.00 0.00
4:53 am 04:53 Cloudy 24 -4.4 11 -11.7 57 57 NNE 10 17 30.55 1035 10 16 0.00 0.00
5:53 am 05:53 Cloudy 23 -5 11 -11.7 60 60 NNE 7 11 30.58 1035 10 16 0.00 0.00
6:53 am 06:53 Cloudy 23 -5 11 -11.7 60 60 NNE 9 15 30.58 1036 10 16 0.00 0.00
7:53 am 07:53 Cloudy 23 -5 11 -11.7 60 60 NNE 10 17 30.60 1036 10 16 0.00 0.00
8:53 am 08:53 Cloudy 23 -5 11 -11.7 60 60 NNE 8 13 30.64 1038 10 16 0.00 0.00
9:53 am 09:53 Cloudy 24 -4.4 11 -11.7 57 57 NNE 3 6 30.66 1038 10 16 0.00 0.00
10:53 am 10:53 Cloudy 25 -3.9 11 -11.7 55 55 N 6 9 30.66 1038 10 16 0.00 0.00
11:53 am 11:53 Cloudy 26 -3.3 12 -11.1 55 55 N 5 7 30.66 1038 10 16 0.00 0.00
12:53 pm 12:53 Cloudy 27 -2.8 12 -11.1 53 53 VRB 5 7 30.66 1038 10 16 0.00 0.00
1:53 pm 13:53 Cloudy 29 -1.7 12 -11.1 49 49 NNE 3 6 30.65 1038 10 16 0.00 0.00
2:53 pm 14:53 Partly Cloudy 32 0 13 -10.6 45 45 NE 8 13 30.63 1037 10 16 0.00 0.00
3:53 pm 15:53 Partly Cloudy 35 1.7 13 -10.6 40 40 NNW 5 7 30.63 1037 10 16 0.00 0.00
4:53 pm 16:53 Mostly Sunny 35 1.7 13 -10.6 40 40 N 5 7 30.62 1037 10 16 0.00 0.00
5:53 pm 17:53 Sunny 35 1.7 12 -11.1 38 38 NNE 5 7 30.63 1037 10 16 0.00 0.00
6:53 pm 18:53 Sunny 33 0.6 13 -10.6 43 43 NNE 9 15 30.64 1038 10 16 0.00 0.00
7:53 pm 19:53 Clear 30 -1.1 14 -10 51 51 NE 7 11 30.66 1038 10 16 0.00 0.00
8:53 pm 20:53 Clear 30 -1.1 14 -10 51 51 NNE 7 11 30.67 1039 10 16 0.00 0.00
9:53 pm 21:53 Clear 29 -1.7 14 -10 54 54 NE 3 6 30.69 1039 10 16 0.00 0.00
10:53 pm 22:53 Clear 27 -2.8 15 -9.4 61 61 N 6 9 30.71 1040 10 16 0.00 0.00
11:53 pm 23:53 Clear 27 -2.8 15 -9.4 61 61 VRB 5 7 30.71 1040 10 16 0.00 0.00

Powered by AerisWeather